Printer-friendly version

IAU Minor Planet Center

Minor Planet Center

MPEC 2004-V57 : 2004 VS60

The following Minor Planet Electronic Circular may be linked-to from your own Web pages, but must not otherwise be redistributed electronically.


Read MPEC 2004-V56 Read MPEC 2004-V58


M.P.E.C. 2004-V57                                Issued 2004 Nov. 12, 14:29 UT

     The Minor Planet Electronic Circulars contain information on unusual
         minor planets and routine data on comets.  They are published
   on behalf of Commission 20 of the International Astronomical Union by the
          Minor Planet Center, Smithsonian Astrophysical Observatory,
                          Cambridge, MA 02138, U.S.A.

                  Supported in part by the Brinson Foundation
             Prepared using the Tamkin Foundation Computer Network

                              MPC@CFA.HARVARD.EDU
          URL http://cfa-www.harvard.edu/iau/mpc.html  ISSN 1523-6714

                                   2004 VS60

Observations:
     K04V60S* C2004 11 10.17762 22 46 00.66 +20 35 17.2          19.6   EV057704
     K04V60S  C2004 11 10.18948 22 46 03.57 +20 34 59.2          19.3   EV057704
     K04V60S  C2004 11 10.20135 22 46 06.42 +20 34 41.0          20.1   EV057704
     K04V60S  C2004 11 10.21321 22 46 09.36 +20 34 21.8          19.5   EV057704
     K04V60S  C2004 11 11.20159 22 50 15.31 +20 08 26.1          18.8 R EV057711
     K04V60S  C2004 11 11.20798 22 50 16.86 +20 08 15.9          18.8 R EV057711
     K04V60S  C2004 11 11.21091 22 50 17.70 +20 08 10.7          19.7 R EV057854
     K04V60S  C2004 11 11.21437 22 50 18.39 +20 08 05.8          18.4 R EV057711
     K04V60S  C2004 11 11.21475 22 50 18.63 +20 08 05.8          19.3 R EV057854
     K04V60S  C2004 11 11.21859 22 50 19.58 +20 07 59.4          19.5 R EV057854
     K04V60S  C2004 11 12.14057 22 54 06.45 +19 44 12.1          18.6 R EV057711
     K04V60S  C2004 11 12.14655 22 54 07.88 +19 44 02.6          18.8 R EV057711
     K04V60S  C2004 11 12.15253 22 54 09.27 +19 43 53.7          18.6 R EV057711
     K04V60S 2C2004 11 12.21665 22 54 24.56 +19 42 13.9          18.7 R EV057H06
     K04V60S 2C2004 11 12.22224 22 54 25.82 +19 42 04.4          18.9 R EV057H06
     K04V60S 2C2004 11 12.22787 22 54 27.20 +19 41 55.1          18.4 R EV057H06

Observer details:
704 Lincoln Laboratory ETS, New Mexico.  Observers M. Blythe, F. Shelly,
    M. Bezpalko, R. Huber, L. Manguso, D. Torres, R. Kracke, M. McCleary,
    H. Stange, A. Milner.  Measurers J. Stuart, R. Sayer, J. Evans, J. Kommers.
    1.0-m f/2.15 reflector + CCD.
711 McDonald Observatory.  Observer J. G. Ries.  0.76-m reflector + CCD
    + prime-focus corrector.
854 Sabino Canyon Observatory, Tucson.  Observer J. E. McGaha.  0.36-m f/10.0
    Schmidt-Cassegrain + CCD.
H06 New Mexico Skies Observatory.  Observer R. Hutsebaut.  0.25-m reflector
    + CCD.

Orbital elements:
2004 VS60
Epoch 2004 Nov. 11.0 TT = JDT 2453320.5                 MPC
M  24.03712              (2000.0)            P               Q
n   0.35487176     Peri.   90.61725     +0.82783952     +0.48071360
a   1.9758551      Node   240.68545     -0.54703746     +0.80593379
e   0.4210774      Incl.   19.36543     +0.12422454     +0.34552157
P   2.78           H   18.4           G   0.15
From 16 observations 2004 Nov. 10-12.

Ephemeris:
2004 VS60                a,e,i = 1.98, 0.42, 19                  q = 1.1439
Date    TT    R. A. (2000) Decl.     Delta      r     Elong.  Phase     V
2004 11 11    22 49.43   +20 13.8    0.527    1.332   119.7    40.2    19.2
2004 11 21    23 28.10   +16 18.2    0.602    1.382   118.8    38.8    19.5
2004 12 01    00 01.89   +13 20.4    0.696    1.435   116.1    38.1    19.9
2004 12 11    00 31.69   +11 18.7    0.805    1.490   112.3    37.7    20.3
2004 12 21    00 58.50   +10 04.7    0.928    1.546   107.9    37.3    20.7
2004 12 31    01 23.10   +09 27.8    1.061    1.603   103.1    36.7    21.0
2005 01 10    01 46.10   +09 18.1    1.204    1.659    98.2    35.9    21.4
2005 01 20    02 07.98   +09 27.7    1.353    1.716    93.1    34.9    21.7
2005 01 30    02 29.06   +09 50.1    1.508    1.772    88.0    33.8    21.9

Kyle E. Smalley              (C) Copyright 2004 MPC           M.P.E.C. 2004-V57

Read MPEC 2004-V56 Read MPEC 2004-V58


Our Web policy. Index to the CBAT/MPC/ICQ pages.


Valid HTML 4.01!